Location: ????????
(55.5667°N, 37.5833°E)
Time: 05:33:43
(UTC+00:00)

Okean-O - Pass Details

Date: 14 April 2026
Orbit: 627 x 629 km, 97.9° (Epoch: 10 May)

Event Time Altitude Azimuth Distance (km) Brightness Sun altitude
Exits shadow 18:05:40 12° 164° (SSE) 1,862 4.5 -12.3°
Maximum altitude 18:09:41 88° 250° (WSW) 639 2.6 -12.7°
Drops below altitude 10° 18:14:07 10° 344° (NNW) 2,022 6.1 -13.2°
Sets 18:16:19 0° 345° (NNW) 2,934 7.0 -13.4°
